Location: High Cliff State Park
(44.1557°N, 88.2948°W)
Time: 21:01:32
(UTC-05:00)

Amateur Radio Satellites - All Passes

Search period start: 16 October 2017 20:31
Search period end: 17 October 2017 20:31
Location: High Cliff State Park, 44.1557°N, 88.2948°W

Satellite Date Start Highest point End Downlink Frequencies (MHz)
Time Altitude Azimuth
STRAND 1 16 Oct 20:37:36 20:42:48 87° 284° (WNW) 20:47:57 437.568
ZACube-1 16 Oct 20:41:44 20:46:13 56° 260° (W) 20:50:45 437.345
AAUSAT CUBESAT 2 16 Oct 20:45:04 20:48:42 30° 264° (W) 20:52:20 437.432
UWE-3 16 Oct 20:55:28 20:59:13 24° 267° (W) 21:03:01 435.000/436.395/437.385
YUBILEINY 16 Oct 20:56:01 21:04:45 63° 77° (ENE) 21:13:28 435.215
O/OREOS (USA 219) 16 Oct 20:59:08 21:02:45 24° 102° (ESE) 21:06:23 437.305
DELFI C3 16 Oct 21:16:59 21:20:44 48° 73° (ENE) 21:24:31 145.870
BEESAT 2 16 Oct 21:22:29 21:24:47 15° 37° (NE) 21:27:05 435.950
Oscar 11 16 Oct 21:27:04 21:30:52 29° 265° (W) 21:34:41 .
Max Valier Satellite 16 Oct 21:29:47 21:33:24 48° 73° (ENE) 21:37:01 145.860
EO-88 16 Oct 21:30:00 21:33:20 34° 71° (ENE) 21:36:41 145.990 - 145.960
UNISAT 6 16 Oct 21:35:01 21:37:24 14° 89° (E) 21:39:46 437.425
BEESAT 3 16 Oct 21:48:26 21:52:22 56° 52° (NE) 21:56:13 437.485
TIGRISAT 16 Oct 21:50:21 21:53:35 18° 91° (E) 21:56:45 435.000
FO-29 16 Oct 21:55:19 22:01:59 79° 104° (ESE) 22:09:27 435.910
AO-85 16 Oct 21:58:01 22:01:39 24° 43° (NE) 22:05:30 145.980
AO-73 16 Oct 22:02:38 22:03:34 11° 273° (W) 22:04:32 145.935
STRAND 1 16 Oct 22:18:51 22:21:11 13° 303° (WNW) 22:23:31 437.568
PRISM 16 Oct 22:21:25 22:24:03 16° 92° (E) 22:26:41 437.425
LO-87 16 Oct 22:33:23 22:36:25 26° 69° (ENE) 22:39:28 145.935 - 145.965
O/OREOS (USA 219) 16 Oct 22:37:40 22:41:56 38° 300° (WNW) 22:46:15 437.305
ESTCUBE 1 16 Oct 22:49:49 22:53:51 33° 69° (ENE) 22:57:54 437.505/2401.250
YUBILEINY 16 Oct 22:53:39 23:00:57 31° 278° (W) 23:08:15 435.215
DELFI C3 16 Oct 22:53:47 22:55:46 13° 269° (W) 22:57:45 145.870
BEESAT 2 16 Oct 22:59:02 23:03:06 88° 235° (SW) 23:07:06 435.950
EO-88 16 Oct 23:04:45 23:07:06 16° 268° (W) 23:09:27 145.990 - 145.960
Max Valier Satellite 16 Oct 23:05:51 23:07:29 12° 270° (W) 23:09:06 145.860
UNISAT 6 16 Oct 23:09:56 23:14:34 65° 286° (WNW) 23:19:05 437.425
TIGRISAT 16 Oct 23:26:02 23:30:33 49° 289° (WNW) 23:34:56 435.000
BEESAT 3 16 Oct 23:27:16 23:29:27 14° 250° (WSW) 23:31:36 437.485
AO-85 16 Oct 23:37:52 23:42:18 54° 240° (WSW) 23:47:05 145.980
FO-29 16 Oct 23:41:36 23:46:29 22° 300° (WNW) 23:51:44 435.910
QB50P2 16 Oct 23:46:08 23:48:45 16° 91° (E) 23:51:22 145.880/145.840
AIST 2D 16 Oct 23:51:05 23:54:23 40° 98° (E) 23:57:39 435.315
NANOSAT C BR1 16 Oct 23:53:45 23:56:17 15° 91° (E) 23:58:47 145.865
PRISM 16 Oct 23:55:37 23:59:32 44° 289° (WNW) 00:03:28 437.425
DUCHIFAT 1 17 Oct 00:06:30 00:09:28 18° 92° (E) 00:12:25 145.980
LO-87 17 Oct 00:07:03 00:09:48 21° 266° (W) 00:12:36 145.935 - 145.965
RS-15 17 Oct 00:10:34 00:20:21 29° 102° (ESE) 00:30:07 29.354- 29.394
50 SAT 17 Oct 00:17:17 00:18:06 11° 64° (ENE) 00:18:56 437.505
DX 1 17 Oct 00:18:57 00:21:19 15° 61° (ENE) 00:23:41 434.975-435.025
SPROUT 17 Oct 00:19:57 00:24:12 74° 76° (ENE) 00:28:30 437.525
ESTCUBE 1 17 Oct 00:26:57 00:30:41 25° 265° (W) 00:34:27 437.505/2401.250
VELOX 1 17 Oct 00:33:29 00:37:50 73° 74° (ENE) 00:42:13 145.980
UKube-1 17 Oct 00:50:43 00:53:48 20° 64° (ENE) 00:56:54 .
EO-79 17 Oct 00:57:01 01:01:19 83° 103° (ESE) 01:05:34 145.935-145.965
POLYITAN 1 17 Oct 01:00:34 01:04:53 90° 223° (SW) 01:09:08 437.675
QB50P2 17 Oct 01:20:41 01:24:50 49° 288° (WNW) 01:28:55 145.880/145.840
AIST 2D 17 Oct 01:25:29 01:27:12 13° 295° (WNW) 01:28:55 435.315
NANOSAT C BR1 17 Oct 01:28:08 01:32:16 50° 288° (WNW) 01:36:23 145.865
DUCHIFAT 1 17 Oct 01:41:18 01:45:19 41° 289° (WNW) 01:49:17 145.980
50 SAT 17 Oct 01:46:53 01:50:01 45° 260° (W) 01:53:12 437.505
DX 1 17 Oct 01:52:43 01:57:00 62° 258° (WSW) 02:01:19 434.975-435.025
M-CUBED/EXP-1 PRIME 17 Oct 01:54:18 01:56:56 20° 101° (E) 01:59:39 437.505
ITUPSAT 1 17 Oct 01:59:08 02:01:59 16° 60° (ENE) 02:04:49 437.325
SPROUT 17 Oct 01:59:40 02:00:36 11° 272° (W) 02:01:33 437.525
BUGSAT 1 17 Oct 02:04:45 02:09:01 87° 287° (WNW) 02:13:14 437.445
MOZHAYETS 4 17 Oct 02:07:11 02:10:24 19° 63° (ENE) 02:13:37
Gurwin Techsat 1B 17 Oct 02:11:36 02:16:28 35° 97° (E) 02:21:19 435.225
Oscar 19 17 Oct 02:11:53 02:16:53 50° 100° (E) 02:21:51 437.125/150
VELOX 1 17 Oct 02:13:29 02:14:47 11° 271° (W) 02:16:06 145.980
BEESAT 17 Oct 02:16:21 02:20:03 23° 63° (ENE) 02:23:46 436.000
RS-15 17 Oct 02:19:06 02:31:28 86° 304° (NW) 02:43:50 29.354- 29.394
UKube-1 17 Oct 02:25:26 02:29:31 43° 261° (W) 02:33:38 .
EO-79 17 Oct 02:35:16 02:36:24 11° 301° (WNW) 02:37:33 145.935-145.965
POLYITAN 1 17 Oct 02:39:34 02:39:56 10° 301° (WNW) 02:40:19 437.675
AO-7 17 Oct 03:20:32 03:27:14 26° 93° (E) 03:33:53 .
M-CUBED/EXP-1 PRIME 17 Oct 03:28:24 03:31:22 28° 295° (WNW) 03:34:30 437.505
ITUPSAT 1 17 Oct 03:34:27 03:39:14 69° 258° (WSW) 03:44:04 437.325
MOZHAYETS 4 17 Oct 03:42:38 03:47:10 52° 260° (W) 03:51:43
CUBESAT XI-V 17 Oct 03:43:37 03:47:53 37° 69° (ENE) 03:52:08 437.345
Gurwin Techsat 1B 17 Oct 03:51:38 03:56:20 33° 294° (WNW) 04:01:01 435.225
Oscar 19 17 Oct 03:51:56 03:55:52 23° 298° (WNW) 03:59:47 437.125/150
BEESAT 17 Oct 03:52:58 03:57:32 45° 261° (W) 04:02:09 436.000
KKS-1 17 Oct 04:02:43 04:05:53 20° 63° (ENE) 04:09:04 437.445
ITAMSAT 1 17 Oct 04:15:07 04:20:09 46° 99° (E) 04:25:09 435.822/435.867
NO-84 17 Oct 04:19:47 04:23:42 34° 132° (SE) 04:27:32 435.350 FM
RS-15 17 Oct 04:34:47 04:45:55 37° 332° (NNW) 04:56:54 29.354- 29.394
STARS 17 Oct 04:46:16 04:49:40 22° 65° (ENE) 04:53:05 437.465
DOVE 4 17 Oct 04:58:46 05:02:05 18° 91° (E) 05:05:28 437.250
AO-7 17 Oct 05:12:24 05:20:41 73° 292° (WNW) 05:28:56 .
CUBESAT XI-V 17 Oct 05:21:37 05:25:21 24° 266° (W) 05:29:06 437.345
KKS-1 17 Oct 05:37:52 05:42:06 46° 260° (W) 05:46:24 437.445
LilacSat-2 17 Oct 05:48:47 05:49:12 10° 89° (E) 05:49:36 437.200
ITAMSAT 1 17 Oct 05:55:05 05:59:21 26° 297° (WNW) 06:03:35 435.822/435.867
NO-84 17 Oct 05:56:57 06:01:05 45° 329° (NNW) 06:05:03 435.350 FM
CUTE-I 17 Oct 05:58:08 06:01:03 15° 89° (E) 06:03:57 437.470
XW-2D 17 Oct 05:59:41 06:01:38 14° 91° (E) 06:03:35 145.860 - 145.880
XW-2B 17 Oct 06:12:24 06:15:04 18° 93° (E) 06:17:43 145.730 - 145.750
NUDT-PHONESAT 17 Oct 06:15:53 06:17:53 14° 91° (E) 06:19:53 437.300
STRAND 1 17 Oct 06:17:25 06:21:17 22° 62° (ENE) 06:25:09 437.568
STARS 17 Oct 06:21:41 06:25:45 38° 262° (W) 06:29:54 437.465
XW-2C 17 Oct 06:34:49 06:38:16 34° 97° (E) 06:41:40 145.795 - 145.815
DOVE 4 17 Oct 06:35:15 06:40:02 59° 287° (WNW) 06:45:03 437.250
RS-15 17 Oct 06:53:03 07:03:09 28° 7° (N) 07:12:55 29.354- 29.394
SO-50 17 Oct 06:53:21 06:55:38 14° 109° (ESE) 06:57:54 436.795
O/OREOS (USA 219) 17 Oct 07:06:33 07:11:08 59° 64° (ENE) 07:15:39 437.305
AO-7 17 Oct 07:06:44 07:12:05 19° 314° (NW) 07:17:26 .
HO-68 17 Oct 07:07:33 07:13:34 28° 93° (E) 07:19:32 435.675
LilacSat-2 17 Oct 07:20:07 07:23:50 59° 286° (WNW) 07:27:32 437.200
XW-2F 17 Oct 07:23:01 07:26:43 63° 285° (WNW) 07:30:23 145.980 - 146.000
KAITUO 1B 17 Oct 07:27:47 07:31:28 70° 284° (WNW) 07:35:07 145.475/437.950
XW-2D 17 Oct 07:32:28 07:36:03 43° 287° (WNW) 07:39:35 145.860 - 145.880
CUTE 1.7 + AOD 2 17 Oct 07:35:09 07:39:03 36° 97° (E) 07:42:55 437.475
NO-84 17 Oct 07:36:14 07:39:16 19° 349° (N) 07:42:12 435.350 FM
CUTE-I 17 Oct 07:36:18 07:41:41 77° 287° (WNW) 07:47:03 437.470
XW-2B 17 Oct 07:45:58 07:49:19 32° 290° (WNW) 07:52:39 145.730 - 145.750
NUDT-PHONESAT 17 Oct 07:48:29 07:51:57 40° 288° (WNW) 07:55:22 437.300
SEEDS 17 Oct 07:49:42 07:53:27 32° 96° (E) 07:57:12 437.485
STRAND 1 17 Oct 07:55:06 08:00:05 53° 260° (W) 08:05:08 437.568
CUBEBUG 2 17 Oct 07:56:37 08:01:01 38° 97° (E) 08:05:17 437.445
PCSat 17 Oct 07:58:33 08:00:42 12° 102° (ESE) 08:02:51 145.827
YUBILEINY 17 Oct 08:08:38 08:12:01 13° 72° (ENE) 08:15:23 435.215
XW-2C 17 Oct 08:09:37 08:12:11 18° 294° (WNW) 08:14:46 145.795 - 145.815
AO-73 17 Oct 08:10:15 08:12:39 14° 89° (E) 08:15:00 145.935
FO-29 17 Oct 08:10:43 08:15:24 35° 66° (ENE) 08:20:23 435.910
AAUSAT CUBESAT 2 17 Oct 08:24:56 08:28:44 35° 97° (E) 08:32:30 437.432
ZACube-1 17 Oct 08:28:59 08:32:41 25° 94° (E) 08:36:17 437.345
SO-50 17 Oct 08:31:02 08:35:29 72° 307° (NW) 08:40:00 436.795
UNISAT 6 17 Oct 08:35:08 08:37:56 16° 61° (ENE) 08:40:46 437.425
UWE-3 17 Oct 08:42:28 08:47:02 66° 101° (E) 08:51:27 435.000/436.395/437.385
XW-2A 17 Oct 08:46:15 08:49:37 86° 284° (WNW) 08:52:56 145.665 - 145.685
O/OREOS (USA 219) 17 Oct 08:47:21 08:50:01 15° 261° (W) 08:52:39 437.305
TIGRISAT 17 Oct 08:50:16 08:53:40 20° 64° (ENE) 08:57:06 435.000
HO-68 17 Oct 08:54:38 09:01:43 61° 292° (WNW) 09:08:46 435.675
RS-15 17 Oct 09:07:48 09:19:29 50° 40° (NE) 09:30:31 29.354- 29.394
CUTE 1.7 + AOD 2 17 Oct 09:11:28 09:14:39 21° 294° (WNW) 09:17:49 437.475
Oscar 11 17 Oct 09:12:01 09:16:09 44° 98° (E) 09:20:14 .
PRISM 17 Oct 09:12:32 09:14:52 15° 63° (ENE) 09:17:13 437.425
NO-84 17 Oct 09:14:57 09:17:50 19° 10° (N) 09:20:34 435.350 FM
CUTE-I 17 Oct 09:18:43 09:20:50 12° 305° (NW) 09:22:57 437.470
SEEDS 17 Oct 09:25:41 09:28:59 23° 293° (WNW) 09:32:16 437.485
CUBEBUG 2 17 Oct 09:33:37 09:37:24 25° 295° (WNW) 09:41:06 437.445
PCSat 17 Oct 09:37:49 09:43:14 86° 119° (ESE) 09:48:42 145.827
AO-73 17 Oct 09:44:55 09:49:16 56° 287° (WNW) 09:53:28 145.935
FO-29 17 Oct 09:56:05 10:00:36 30° 266° (W) 10:05:22 435.910
YUBILEINY 17 Oct 09:58:26 10:07:01 68° 93° (E) 10:15:38 435.215
Tancredo 1 17 Oct 10:00:38 10:02:28 48° 144° (SE) 10:04:18 437.200
AAUSAT CUBESAT 2 17 Oct 10:00:51 10:03:58 21° 294° (WNW) 10:07:05 437.432
ZACube-1 17 Oct 10:05:02 10:08:58 32° 292° (WNW) 10:12:49 437.345
UNISAT 6 17 Oct 10:09:31 10:14:06 64° 259° (W) 10:18:47 437.425
SO-50 17 Oct 10:14:17 10:16:46 14° 327° (NNW) 10:19:14 436.795
UWE-3 17 Oct 10:20:23 10:22:54 15° 299° (WNW) 10:25:23 435.000/436.395/437.385
TIGRISAT 17 Oct 10:25:32 10:30:00 48° 262° (W) 10:34:33 435.000
DELFI C3 17 Oct 10:26:30 10:30:27 65° 101° (E) 10:34:23 145.870
AIST 2D 17 Oct 10:27:04 10:29:39 19° 68° (ENE) 10:32:14 435.315
EO-88 17 Oct 10:30:17 10:33:40 35° 98° (E) 10:37:00 145.990 - 145.960
Max Valier Satellite 17 Oct 10:31:38 10:35:16 53° 100° (E) 10:38:51 145.860
nSIGHT-1 17 Oct 10:36:07 10:37:41 13° 132° (SE) 10:39:15 .
QB50P2 17 Oct 10:40:24 10:42:57 16° 62° (ENE) 10:45:30 145.880/145.840
HO-68 17 Oct 10:44:42 10:48:02 14° 313° (NW) 10:51:22 435.675
PRISM 17 Oct 10:45:47 10:49:43 51° 259° (W) 10:53:42 437.425
NANOSAT C BR1 17 Oct 10:47:32 10:49:56 15° 62° (ENE) 10:52:22 145.865
Oscar 11 17 Oct 10:48:56 10:51:57 19° 296° (WNW) 10:54:58 .
NO-84 17 Oct 10:52:17 10:56:01 48° 32° (NNE) 10:59:25 435.350 FM
ISS 17 Oct 10:59:02 11:01:25 19° 135° (SE) 11:03:48 437.550
DUCHIFAT 1 17 Oct 10:59:51 11:02:40 18° 64° (ENE) 11:05:30 145.980
RS-15 17 Oct 11:20:46 11:32:21 61° 246° (WSW) 11:43:19 29.354- 29.394
PCSat 17 Oct 11:23:27 11:27:21 20° 320° (NW) 11:31:17 145.827
LO-87 17 Oct 11:31:33 11:34:40 26° 96° (E) 11:37:43 145.935 - 145.965
Tancredo 1 17 Oct 11:33:12 11:34:27 15° 343° (NNW) 11:35:42 437.200
EO-79 17 Oct 11:50:16 11:54:31 73° 75° (ENE) 11:58:48 145.935-145.965
POLYITAN 1 17 Oct 11:53:57 11:58:13 80° 77° (ENE) 12:02:32 437.675
Oscar 19 17 Oct 11:54:27 11:56:42 13° 57° (ENE) 11:58:58 437.125/150
YUBILEINY 17 Oct 11:57:16 12:04:32 29° 295° (WNW) 12:11:52 435.215
AIST 2D 17 Oct 11:59:38 12:02:40 27° 264° (W) 12:05:42 435.315
Gurwin Techsat 1B 17 Oct 11:59:40 12:00:20 10° 54° (NE) 12:01:00 435.225
DELFI C3 17 Oct 12:03:14 12:04:39 12° 298° (WNW) 12:06:06 145.870
EO-88 17 Oct 12:04:43 12:07:01 16° 294° (WNW) 12:09:19 145.990 - 145.960
SPROUT 17 Oct 12:06:16 12:07:34 11° 88° (E) 12:08:51 437.525
Max Valier Satellite 17 Oct 12:07:09 12:08:37 12° 297° (WNW) 12:10:06 145.860
nSIGHT-1 17 Oct 12:10:21 12:13:32 85° 328° (NNW) 12:16:45 .
QB50P2 17 Oct 12:14:06 12:18:17 55° 260° (W) 12:22:31 145.880/145.840
ESTCUBE 1 17 Oct 12:16:43 12:21:09 58° 101° (E) 12:25:33 437.505/2401.250
NANOSAT C BR1 17 Oct 12:21:00 12:25:10 58° 259° (W) 12:29:24 145.865
VELOX 1 17 Oct 12:23:45 12:25:32 12° 89° (E) 12:27:20 145.980
NO-84 17 Oct 12:30:12 12:33:07 23° 232° (SW) 12:35:51 435.350 FM
DUCHIFAT 1 17 Oct 12:33:52 12:37:57 47° 261° (W) 12:42:06 145.980
ISS 17 Oct 12:34:23 12:37:37 62° 332° (NNW) 12:40:51 437.550
AO-7 17 Oct 12:35:42 12:37:59 11° 37° (NE) 12:40:17 .
M-CUBED/EXP-1 PRIME 17 Oct 12:41:28 12:44:33 31° 66° (ENE) 12:47:31 437.505
BEESAT 2 17 Oct 12:54:36 12:55:14 10° 108° (ESE) 12:55:53 435.950
BUGSAT 1 17 Oct 12:55:14 12:59:23 78° 75° (ENE) 13:03:38 437.445
LO-87 17 Oct 13:05:05 13:07:56 22° 292° (WNW) 13:10:46 145.935 - 145.965
BEESAT 3 17 Oct 13:15:55 13:19:51 59° 121° (ESE) 13:23:50 437.485
EO-79 17 Oct 13:29:49 13:30:46 11° 272° (W) 13:31:43 145.935-145.965
Oscar 19 17 Oct 13:30:03 13:35:14 85° 75° (ENE) 13:40:25 437.125/150
Gurwin Techsat 1B 17 Oct 13:34:00 13:39:15 66° 72° (ENE) 13:44:32 435.225
RS-15 17 Oct 13:37:55 13:41:55 12° 268° (W) 13:45:52 29.354- 29.394
SPROUT 17 Oct 13:39:38 13:43:56 71° 286° (WNW) 13:48:12 437.525
DX 1 17 Oct 13:39:55 13:43:07 20° 93° (E) 13:46:19 434.975-435.025
nSIGHT-1 17 Oct 13:47:27 13:50:09 25° 348° (NNW) 13:52:52 .
AO-85 17 Oct 13:54:22 13:57:46 30° 116° (ESE) 14:01:15 145.980
ESTCUBE 1 17 Oct 13:54:46 13:57:29 16° 298° (WNW) 14:00:11 437.505/2401.250
VELOX 1 17 Oct 13:58:01 14:02:26 69° 287° (WNW) 14:06:50 145.980
ITAMSAT 1 17 Oct 13:58:54 14:01:02 13° 56° (NE) 14:03:09 435.822/435.867
UKube-1 17 Oct 14:10:51 14:14:31 26° 96° (E) 14:18:09 .
ISS 17 Oct 14:11:51 14:14:32 23° 351° (N) 14:17:15 437.550
M-CUBED/EXP-1 PRIME 17 Oct 14:16:57 14:19:04 15° 260° (W) 14:21:08 437.505
AO-7 17 Oct 14:20:56 14:28:36 44° 60° (ENE) 14:36:16 .
BEESAT 2 17 Oct 14:28:19 14:32:19 80° 305° (NW) 14:36:24 435.950
50 SAT 17 Oct 14:36:19 14:39:37 67° 285° (WNW) 14:42:54 437.505
Tancredo 1 17 Oct 14:37:35 14:39:04 20° 21° (NNE) 14:40:33 437.200
BEESAT 3 17 Oct 14:54:52 14:57:45 19° 320° (NW) 15:00:39 437.485
Oscar 19 17 Oct 15:13:09 15:15:12 12° 272° (W) 15:17:16 437.125/150
DX 1 17 Oct 15:15:21 15:19:28 41° 290° (WNW) 15:23:34 434.975-435.025
Gurwin Techsat 1B 17 Oct 15:16:14 15:19:39 17° 270° (W) 15:23:06 435.225
SO-50 17 Oct 15:20:46 15:24:33 24° 41° (NE) 15:28:21 436.795
nSIGHT-1 17 Oct 15:24:32 15:27:09 22° 8° (N) 15:29:46 .
ITUPSAT 1 17 Oct 15:33:46 15:37:48 26° 95° (E) 15:41:49 437.325
ITAMSAT 1 17 Oct 15:34:27 15:39:38 82° 74° (ENE) 15:44:53 435.822/435.867
AO-85 17 Oct 15:34:44 15:38:08 28° 315° (NW) 15:41:38 145.980
MOZHAYETS 4 17 Oct 15:36:09 15:40:17 32° 96° (E) 15:44:21
UKube-1 17 Oct 15:46:43 15:50:31 30° 293° (WNW) 15:54:18 .
ISS 17 Oct 15:48:57 15:51:44 25° 12° (NNE) 15:54:31 437.550
BEESAT 17 Oct 15:51:15 15:55:46 40° 98° (E) 16:00:14 436.000
DOVE 4 17 Oct 16:06:33 16:09:19 17° 63° (ENE) 16:12:10 437.250
BEESAT 2 17 Oct 16:08:44 16:10:44 13° 325° (NW) 16:12:45 435.950
Tancredo 1 17 Oct 16:09:12 16:10:44 23° 219° (SW) 16:12:15 437.200
AO-7 17 Oct 16:13:22 16:21:17 48° 259° (W) 16:29:15 .
PCSat 17 Oct 16:41:41 16:45:35 20° 39° (NE) 16:49:28 145.827
XW-2B 17 Oct 16:56:06 16:57:47 13° 63° (ENE) 16:59:26 145.730 - 145.750
nSIGHT-1 17 Oct 17:00:42 17:03:53 60° 28° (NNE) 17:07:04 .
SO-50 17 Oct 17:00:48 17:05:18 53° 240° (WSW) 17:09:49 436.795
ITUPSAT 1 17 Oct 17:11:17 17:15:41 36° 292° (WNW) 17:20:02 437.325
MOZHAYETS 4 17 Oct 17:13:26 17:17:20 28° 293° (WNW) 17:21:12
CUBESAT XI-V 17 Oct 17:15:13 17:19:50 75° 102° (ESE) 17:24:25 437.345
ITAMSAT 1 17 Oct 17:17:22 17:19:44 13° 271° (W) 17:22:07 435.822/435.867
XW-2C 17 Oct 17:17:40 17:20:37 22° 68° (ENE) 17:23:35 145.795 - 145.815
CUTE-I 17 Oct 17:20:47 17:25:16 29° 64° (ENE) 17:29:47 437.470
ISS 17 Oct 17:25:16 17:28:34 83° 31° (NNE) 17:31:51 437.550
KKS-1 17 Oct 17:27:11 17:31:06 29° 96° (E) 17:34:59 437.445
BEESAT 17 Oct 17:29:27 17:33:19 25° 296° (WNW) 17:37:11 436.000
HO-68 17 Oct 17:38:31 17:44:09 26° 56° (ENE) 17:49:49 435.675
DOVE 4 17 Oct 17:42:41 17:46:39 45° 262° (W) 17:50:47 437.250
LilacSat-2 17 Oct 18:02:45 18:06:35 80° 76° (ENE) 18:10:26 437.200
XW-2F 17 Oct 18:04:35 18:08:22 72° 74° (ENE) 18:12:08 145.980 - 146.000
KAITUO 1B 17 Oct 18:08:31 18:12:13 62° 75° (ENE) 18:15:54 145.475/437.950
STARS 17 Oct 18:09:09 18:13:10 32° 97° (E) 18:17:09 437.465
XW-2D 17 Oct 18:14:19 18:18:08 78° 259° (W) 18:21:57 145.860 - 145.880
PCSat 17 Oct 18:24:15 18:29:42 87° 240° (WSW) 18:35:08 145.827
XW-2B 17 Oct 18:27:45 18:31:29 55° 259° (W) 18:35:15 145.730 - 145.750
NUDT-PHONESAT 17 Oct 18:28:07 18:31:51 77° 258° (WSW) 18:35:35 437.300
CUTE 1.7 + AOD 2 17 Oct 18:29:03 18:32:47 31° 69° (ENE) 18:36:33 437.475
nSIGHT-1 17 Oct 18:37:31 18:39:55 19° 225° (SW) 18:42:17 .
SEEDS 17 Oct 18:42:43 18:46:15 27° 68° (ENE) 18:49:48 437.485
XW-2C 17 Oct 18:51:19 18:54:39 28° 264° (W) 18:57:59 145.795 - 145.815
CUBESAT XI-V 17 Oct 18:54:22 18:56:36 13° 300° (WNW) 18:58:48 437.345
CUBEBUG 2 17 Oct 18:55:33 18:59:51 38° 69° (ENE) 19:04:13 437.445
CUTE-I 17 Oct 19:00:09 19:05:08 41° 262° (W) 19:10:10 437.470
ISS 17 Oct 19:02:52 19:04:37 14° 228° (SW) 19:06:23 437.550
KKS-1 17 Oct 19:03:42 19:07:36 30° 293° (WNW) 19:11:29 437.445
AO-73 17 Oct 19:07:02 19:09:42 16° 62° (ENE) 19:12:24 145.935
AAUSAT CUBESAT 2 17 Oct 19:16:22 19:19:53 28° 69° (ENE) 19:23:24 437.432
XW-2A 17 Oct 19:18:25 19:21:35 36° 72° (ENE) 19:24:45 145.665 - 145.685
HO-68 17 Oct 19:24:07 19:31:15 72° 256° (WSW) 19:38:28 435.675
ZACube-1 17 Oct 19:25:47 19:29:34 26° 67° (ENE) 19:33:21 437.345
UWE-3 17 Oct 19:40:02 19:44:37 63° 74° (ENE) 19:49:15 435.000/436.395/437.385
STARS 17 Oct 19:45:39 19:49:22 26° 294° (WNW) 19:53:03 437.465
BEESAT 3 17 Oct 19:56:09 19:56:37 10° 31° (NNE) 19:57:06 437.485
STRAND 1 17 Oct 20:03:52 20:08:51 47° 99° (E) 20:13:48 437.568
CUTE 1.7 + AOD 2 17 Oct 20:05:12 20:08:38 24° 266° (W) 20:12:06 437.475
YUBILEINY 17 Oct 20:06:48 20:14:46 37° 69° (ENE) 20:22:44 435.215
Oscar 11 17 Oct 20:07:55 20:11:58 40° 71° (ENE) 20:16:03 .
PCSat 17 Oct 20:10:04 20:12:15 12° 258° (WSW) 20:14:26 145.827
SEEDS 17 Oct 20:18:17 20:21:52 27° 265° (W) 20:25:27 437.485
